Terminal Aerodrome Forecast
Issued by NWS St Louis, MO

Home | Current Version | Previous Version | Text Only | Print | Product List | Glossary On
Versions: 1 2 3 4 5 6 7 8 9 10 11 12 13 14 15 16 17 18 19 20 21 22 23 24 25
586
FTUS43 KLSX 302321
TAFSTL
TAF
KSTL 302321Z 0100/0206 26010KT P6SM OVC030
     FM010600 27010KT P6SM SCT035
     FM011300 27009KT P6SM SCT250=

USA.gov is the U.S. government's official web portal to all federal, state and local government web resources and services.